Location: Dumpton Point
(51.3500°N, 1.4433°E)
Time: 06:59:26
(UTC+00:00)

SeaSat 1 - Pass Details

Date: 09 April 2020
Orbit: 745 x 746 km, 108.0° (Epoch: 24 May)

Event Time Altitude Azimuth Distance (km) Brightness Sun altitude
Rises 19:49:41 0° 28° (NNE) 3,202 5.7 -10.8°
Reaches altitude 10° 19:51:59 10° 24° (NNE) 2,275 5.0 -11.1°
Maximum altitude 19:56:48 56° 308° (NW) 894 3.3 -11.7°
Drops below altitude 10° 20:01:36 10° 231° (SW) 2,262 5.2 -12.4°
Sets 20:03:54 0° 227° (SW) 3,182 5.9 -12.7°
